Hourly Weather Allariz

Today, 8 March, Monday

Time Temperature Precipitation Wind Pressure Humidity
00:00 +5°C° 0 mm 1 mps 711 mmHg 91%
01:00 +5°C° 0 mm 1 mps 711 mmHg 90%
02:00 +5°C° 0 mm 1 mps 711 mmHg 89%
03:00 +5°C° 0 mm 1 mps 711 mmHg 89%
04:00 +5°C° 0 mm 1 mps 711 mmHg 88%
05:00 +4°C° 0 mm 2 mps 711 mmHg 88%
06:00 +4°C° 0 mm 2 mps 711 mmHg 86%
07:00 +5°C° 0 mm 2 mps 712 mmHg 84%
08:00 +5°C° 0 mm 2 mps 712 mmHg 82%
09:00 +6°C° 0 mm 2 mps 712 mmHg 76%
10:00 +8°C° 0 mm 2 mps 713 mmHg 70%
11:00 +9°C° 0 mm 2 mps 713 mmHg 65%
12:00 +10°C° 0 mm 3 mps 713 mmHg 62%
13:00 +10°C° 0 mm 3 mps 712 mmHg 60%
14:00 +10°C° 0 mm 3 mps 712 mmHg 58%
15:00 +9°C° 0 mm 3 mps 712 mmHg 63%
16:00 +8°C° 0 mm 3 mps 712 mmHg 68%
17:00 +7°C° 0 mm 3 mps 712 mmHg 74%
18:00 +5°C° 0 mm 2 mps 712 mmHg 80%
19:00 +4°C° 0 mm 2 mps 713 mmHg 86%
20:00 +3°C° 0 mm 1 mps 713 mmHg 92%
21:00 +3°C° 0 mm 1 mps 714 mmHg 94%
22:00 +2°C° 0 mm 1 mps 714 mmHg 95%
23:00 +2°C° 0 mm 1 mps 714 mmHg 96%

Tomorrow, 9 March, Tuesday

Time Temperature Precipitation Wind Pressure Humidity
00:00 +2°C° 0 mm 1 mps 714 mmHg 95%
01:00 +2°C° 0 mm 1 mps 714 mmHg 94%
02:00 +2°C° 0 mm 0 mps 714 mmHg 93%
03:00 +1°C° 0 mm 0 mps 714 mmHg 92%
04:00 +1°C° 0 mm 0 mps 714 mmHg 91%
05:00 +1°C° 0 mm 0 mps 714 mmHg 90%
06:00 +3°C° 0 mm 0 mps 714 mmHg 84%
07:00 +5°C° 0 mm 1 mps 715 mmHg 78%
08:00 +6°C° 0 mm 1 mps 715 mmHg 72%
09:00 +8°C° 0 mm 1 mps 715 mmHg 65%
10:00 +10°C° 0 mm 1 mps 715 mmHg 58%
11:00 +13°C° 0 mm 1 mps 715 mmHg 51%
12:00 +13°C° 0 mm 1 mps 715 mmHg 50%
13:00 +13°C° 0 mm 1 mps 715 mmHg 49%
14:00 +13°C° 0 mm 2 mps 714 mmHg 49%
15:00 +11°C° 0 mm 1 mps 714 mmHg 56%
16:00 +10°C° 0 mm 1 mps 714 mmHg 63%
17:00 +9°C° 0 mm 1 mps 714 mmHg 71%
18:00 +8°C° 0 mm 1 mps 714 mmHg 72%
19:00 +6°C° 0 mm 0 mps 715 mmHg 74%
20:00 +5°C° 0 mm 0 mps 715 mmHg 75%
21:00 +4°C° 0 mm 0 mps 715 mmHg 78%
22:00 +4°C° 0 mm 0 mps 715 mmHg 80%
23:00 +3°C° 0 mm 0 mps 715 mmHg 82%

Day after tomorrow, 10 March, Wednesday

Time Temperature Precipitation Wind Pressure Humidity
00:00 +3°C° 0 mm 0 mps 715 mmHg 81%
01:00 +3°C° 0 mm 0 mps 715 mmHg 80%
02:00 +3°C° 0 mm 0 mps 715 mmHg 79%
03:00 +3°C° 0 mm 0 mps 715 mmHg 77%
04:00 +3°C° 0 mm 0 mps 715 mmHg 75%
05:00 +3°C° 0 mm 0 mps 715 mmHg 73%
06:00 +5°C° 0 mm 0 mps 715 mmHg 69%
07:00 +6°C° 0 mm 0 mps 716 mmHg 66%
08:00 +8°C° 0 mm 0 mps 716 mmHg 62%
09:00 +10°C° 0 mm 0 mps 717 mmHg 59%
10:00 +13°C° 0 mm 1 mps 717 mmHg 57%
11:00 +15°C° 0 mm 1 mps 717 mmHg 55%
12:00 +15°C° 0 mm 1 mps 717 mmHg 57%
13:00 +15°C° 0 mm 2 mps 717 mmHg 59%
14:00 +16°C° 0 mm 2 mps 716 mmHg 60%
15:00 +14°C° 0 mm 2 mps 716 mmHg 68%
16:00 +13°C° 0 mm 1 mps 716 mmHg 76%
17:00 +12°C° 0 mm 1 mps 716 mmHg 83%
18:00 +11°C° 0 mm 1 mps 716 mmHg 87%
19:00 +10°C° 0 mm 1 mps 716 mmHg 91%
20:00 +8°C° 0 mm 1 mps 717 mmHg 95%
21:00 +8°C° 0 mm 1 mps 717 mmHg 94%
22:00 +8°C° 0 mm 1 mps 717 mmHg 93%
23:00 +9°C° 0 mm 1 mps 717 mmHg 92%

11 March, Thursday

Time Temperature Precipitation Wind Pressure Humidity
00:00 +9°C° 0 mm 1 mps 717 mmHg 92%
01:00 +9°C° 0 mm 1 mps 717 mmHg 92%
02:00 +10°C° 0 mm 1 mps 716 mmHg 91%
03:00 +10°C° 0 mm 1 mps 716 mmHg 92%
04:00 +10°C° 0 mm 1 mps 717 mmHg 92%
05:00 +10°C° 0 mm 1 mps 717 mmHg 93%
06:00 +10°C° 0 mm 1 mps 717 mmHg 91%
07:00 +11°C° 0 mm 1 mps 717 mmHg 89%
08:00 +10°C° 0 mm 2 mps 717 mmHg 87%
09:00 +10°C° 0.1 mm 2 mps 717 mmHg 87%
10:00 +10°C° 0.1 mm 2 mps 717 mmHg 87%
11:00 +12°C° 0.1 mm 2 mps 717 mmHg 87%
12:00 +12°C° 0.4 mm 2 mps 717 mmHg 89%
13:00 +12°C° 0.4 mm 2 mps 717 mmHg 91%
14:00 +11°C° 0.4 mm 1 mps 717 mmHg 93%
15:00 +11°C° 0.2 mm 1 mps 717 mmHg 95%
16:00 +11°C° 0.2 mm 1 mps 717 mmHg 96%
17:00 +11°C° 0.2 mm 1 mps 717 mmHg 97%
18:00 +10°C° 0.1 mm 1 mps 717 mmHg 97%
19:00 +10°C° 0.1 mm 1 mps 717 mmHg 96%
20:00 +9°C° 0.1 mm 1 mps 717 mmHg 96%
21:00 +8°C° 0.1 mm 1 mps 717 mmHg 96%
22:00 +8°C° 0.1 mm 1 mps 717 mmHg 96%
23:00 +7°C° 0.1 mm 1 mps 717 mmHg 95%

12 March, Friday

Time Temperature Precipitation Wind Pressure Humidity
00:00 +7°C° 0.1 mm 1 mps 717 mmHg 95%
01:00 +7°C° 0.1 mm 1 mps 716 mmHg 94%
02:00 +6°C° 0.1 mm 1 mps 716 mmHg 93%
03:00 +6°C° 0 mm 1 mps 716 mmHg 93%
04:00 +6°C° 0 mm 1 mps 716 mmHg 93%
05:00 +6°C° 0 mm 1 mps 716 mmHg 92%
06:00 +6°C° 0.1 mm 1 mps 716 mmHg 90%
07:00 +7°C° 0.1 mm 1 mps 716 mmHg 88%
08:00 +8°C° 0.1 mm 1 mps 717 mmHg 86%
09:00 +7°C° 0.2 mm 2 mps 717 mmHg 84%
10:00 +8°C° 0.2 mm 2 mps 717 mmHg 81%
11:00 +9°C° 0.2 mm 3 mps 717 mmHg 78%
12:00 +9°C° 0.2 mm 3 mps 717 mmHg 76%
13:00 +10°C° 0.2 mm 3 mps 716 mmHg 73%
14:00 +10°C° 0.2 mm 4 mps 716 mmHg 70%
15:00 +9°C° 0.1 mm 3 mps 716 mmHg 73%
16:00 +8°C° 0.1 mm 3 mps 716 mmHg 76%
17:00 +7°C° 0.1 mm 3 mps 716 mmHg 78%
18:00 +6°C° 0 mm 2 mps 716 mmHg 84%
19:00 +5°C° 0 mm 1 mps 716 mmHg 90%
20:00 +4°C° 0 mm 1 mps 716 mmHg 96%
21:00 +4°C° 0 mm 1 mps 717 mmHg 96%
22:00 +4°C° 0 mm 1 mps 717 mmHg 96%
23:00 +4°C° 0 mm 1 mps 717 mmHg 96%

13 March, Saturday

Time Temperature Precipitation Wind Pressure Humidity
00:00 +4°C° 0 mm 1 mps 717 mmHg 96%
01:00 +4°C° 0 mm 1 mps 717 mmHg 96%
02:00 +3°C° 0 mm 1 mps 716 mmHg 96%
03:00 +4°C° 0 mm 1 mps 717 mmHg 95%
04:00 +5°C° 0 mm 1 mps 717 mmHg 93%
05:00 +4°C° 0 mm 0 mps 717 mmHg 92%
06:00 +6°C° 0 mm 1 mps 717 mmHg 89%
07:00 +7°C° 0 mm 1 mps 717 mmHg 87%
08:00 +8°C° 0 mm 1 mps 718 mmHg 84%
09:00 +9°C° 0 mm 1 mps 718 mmHg 79%
10:00 +9°C° 0 mm 2 mps 718 mmHg 75%
11:00 +9°C° 0 mm 2 mps 718 mmHg 70%
12:00 +10°C° 0.1 mm 2 mps 718 mmHg 70%
13:00 +10°C° 0.1 mm 2 mps 718 mmHg 70%
14:00 +10°C° 0.1 mm 2 mps 718 mmHg 70%
15:00 +10°C° 0.1 mm 2 mps 718 mmHg 75%
16:00 +9°C° 0.1 mm 2 mps 717 mmHg 80%
17:00 +9°C° 0.1 mm 1 mps 717 mmHg 85%
18:00 +8°C° 0 mm 1 mps 718 mmHg 88%
19:00 +7°C° 0 mm 1 mps 718 mmHg 92%
20:00 +5°C° 0 mm 0 mps 718 mmHg 95%
21:00 +4°C° 0 mm 0 mps 718 mmHg 95%
22:00 +4°C° 0 mm 0 mps 719 mmHg 96%
23:00 +3°C° 0 mm 0 mps 719 mmHg 96%
Show more